CW2613 Weather Reports


Display with metric or nautical units.
time (UTC)temp
F
wind
direction
speed
MPH
gust
MPH
rain 1hr
in
rain 24hr
in
rain mn
in
humidity
%
barometer
mb
20260831181541 80 165 0.0 0.0 0.00 0.60 0.60 1 1015.1
20260831180036 79 164 0.0 0.0 0.00 0.60 0.60 1 1015.3
20260831174547 78 152 0.0 0.0 0.02 0.60 0.60 1 1015.2
20260831173028 78 158 0.0 0.0 0.03 0.60 0.60 1 1015.2
20260831171539 77 161 0.0 0.0 0.04 0.60 0.60 1 1015.3
20260831170045 77 167 0.0 0.0 0.05 0.60 0.60 1 1015.6
20260831164513 77 182 0.0 0.0 0.11 0.56 0.56 1 1015.7
20260831163009 77 162 0.0 0.0 0.50 0.56 0.56 1 1015.9
20260831161504 77 172 0.0 0.0 0.56 0.56 0.56 1 1016.3
20260831160001 77 157 0.0 0.0 0.54 0.71 0.54 1 1016.4
20260831154610 78 155 0.0 0.0 0.46 0.63 0.46 1 1016.4
20260831153052 81 149 0.0 0.0 0.07 0.24 0.07 30 1016.7
20260831151548 86 173 0.0 1.0 0.00 0.17 0.00 53 1016.1
20260831150044 89 188 0.0 0.0 0.00 0.17 0.00 52 1015.9
20260831144539 90 193 0.0 0.0 0.00 0.33 0.00 59 1015.7
20260831143035 89 179 0.0 0.0 0.00 0.33 0.00 53 1015.6
20260831141530 88 191 0.0 0.0 0.00 0.33 0.00 52 1015.6
20260831140029 87 195 0.0 0.0 0.00 0.33 0.00 46 1015.6
20260831134521 88 182 0.0 0.0 0.00 0.33 0.00 46 1015.5
20260831133016 87 180 0.0 0.0 0.00 0.33 0.00 37 1015.4
20260831131513 87 174 0.0 0.0 0.00 0.33 0.00 32 1015.3
20260831130006 85 176 0.0 0.0 0.00 0.33 0.00 18 1015.0
20260831124503 83 173 0.0 0.0 0.00 0.33 0.00 1 1015.0
20260831123058 80 167 0.0 0.0 0.00 0.33 0.00 1 1014.9
20260831121554 78 169 0.0 0.0 0.00 0.33 0.00 1 1014.9
20260831120050 76 167 0.0 0.0 0.00 0.33 0.00 1 1014.8
20260831114546 76 167 0.0 0.0 0.00 0.33 0.00 1 1014.5
20260831113043 0 0.0 0.0 0.00 0.33 0.00 1014.3
20260831111536 0 0.0 0.0 0.00 0.33 0.00 1014.3
20260831110032 0 0.0 0.0 0.00 0.33 0.00 1014.1
20260831104533 0 0.0 0.0 0.00 0.33 0.00 1014.0
20260831103043 0 0.0 0.0 0.00 0.33 0.00 1013.8
20260831101518 0 0.0 0.0 0.00 0.33 0.00 1013.8
20260831100021 0 0.0 0.0 0.00 0.33 0.00 1013.6
20260831094522 0 0.0 0.0 0.00 0.33 0.00 1013.5
20260831093006 0 0.0 0.0 0.00 0.33 0.00 1013.5
20260831091614 0 0.0 0.0 0.00 0.33 0.00 1013.5
20260831084551 0 0.0 0.0 0.00 0.33 0.00 1013.8
20260831083047 0 0.0 0.0 0.00 0.33 0.00 1013.9
20260831081542 0 0.0 0.0 0.00 0.33 0.00 1014.1
20260831080052 0 0.0 0.0 0.00 0.33 0.00 1013.9
20260831074534 0 0.0 0.0 0.00 0.33 0.00 1014.0
20260831073033 0 0.0 0.0 0.00 0.33 0.00 1014.0
20260831071525 0 0.0 0.0 0.00 0.33 0.00 1013.9
20260831070021 0 0.0 0.0 0.00 0.33 0.00 1014.1
20260831064517 0 0.0 0.0 0.00 0.33 0.00 1014.3
20260831063018 0 0.0 0.0 0.00 0.33 0.00 1014.3
20260831061508 0 0.0 0.0 0.00 0.33 0.00 1014.4
20260831060004 0 0.0 0.0 0.00 0.33 0.00 1014.7
20260831054608 0 0.0 0.0 0.00 0.33 0.00 1014.9
20260831053055 0 0.0 0.0 0.00 0.33 0.00 1014.9
20260831051550 0 0.0 0.0 0.00 0.33 0.00 1015.1
20260831050046 0 0.0 0.0 0.00 0.33 0.00 1015.3
20260831044544 0 0.0 0.0 0.00 0.33 0.00 1015.3
20260831043037 0 0.0 0.0 0.00 0.33 0.00 1015.3
20260831041544 75 165 0.0 0.0 0.00 0.33 0.00 1 1015.5
20260831040029 76 165 0.0 0.0 0.00 0.33 0.00 1 1015.6
20260831034526 76 165 0.0 0.0 0.00 0.33 0.33 1 1015.7
20260831033020 76 165 0.0 0.0 0.00 0.33 0.33 1 1015.6
20260831031515 76 165 0.0 0.0 0.00 0.33 0.33 1 1015.7
20260831030011 76 165 0.0 0.0 0.00 0.33 0.33 1 1015.6
20260831024507 77 165 0.0 0.0 0.00 0.33 0.33 1 1015.4
20260831023002 77 165 0.0 0.0 0.00 0.33 0.33 1 1015.6
20260831021559 77 155 0.0 0.0 0.00 0.33 0.33 1 1015.6
20260831020054 77 173 0.0 0.0 0.00 0.33 0.33 1 1015.8
20260831014549 78 173 0.0 0.0 0.00 0.33 0.33 1 1015.6
20260831013045 79 176 0.0 0.0 0.00 0.33 0.33 2 1015.4
20260831011541 80 195 0.0 0.0 0.00 0.33 0.33 11 1015.4
20260831010039 80 172 0.0 0.0 0.00 0.33 0.33 1 1015.2
20260831004531 79 173 0.0 0.0 0.00 0.33 0.33 1 1015.3
20260831003027 80 173 0.0 0.0 0.00 0.33 0.33 1 1015.3
20260831001523 80 185 0.0 0.0 0.00 0.33 0.33 1 1015.3
20260831000024 80 185 0.0 0.0 0.00 0.33 0.33 3 1015.2
20260830234527 81 184 0.0 0.0 0.00 0.33 0.33 14 1015.0
20260830233010 82 184 0.0 0.0 0.00 0.33 0.33 22 1014.8
20260830231506 82 184 0.0 0.0 0.00 0.33 0.33 18 1014.6
20260830230003 83 184 0.0 0.0 0.00 0.33 0.33 28 1014.5
20260830224601 83 184 0.0 0.0 0.00 0.33 0.33 28 1014.3
20260830223101 84 184 0.0 0.0 0.00 0.33 0.33 41 1014.5
20260830221605 84 183 0.0 0.0 0.00 0.33 0.33 44 1014.8
20260830220044 85 176 0.0 0.0 0.00 0.33 0.33 49 1014.7
20260830214539 86 186 0.0 0.0 0.00 0.34 0.33 53 1014.7
20260830213033 87 186 0.0 0.0 0.00 0.34 0.33 56 1014.5
20260830211533 87 189 0.0 0.0 0.00 0.34 0.33 57 1014.6
20260830210027 88 181 0.0 0.0 0.00 0.34 0.33 57 1014.6
20260830204534 88 181 0.0 0.0 0.00 0.35 0.33 58 1014.4
20260830203016 88 175 0.0 0.0 0.00 0.35 0.33 57 1014.4
20260830201511 88 183 0.0 0.0 0.00 0.35 0.33 58 1014.4
20260830200007 89 157 0.0 0.0 0.00 0.35 0.33 59 1014.5
20260830194503 89 194 0.0 0.0 0.00 0.39 0.33 61 1014.7
20260830193108 90 178 0.0 0.0 0.00 0.39 0.33 60 1015.1
20260830191557 89 183 0.0 0.0 0.00 0.39 0.33 61 1015.3
20260830190049 89 167 0.0 0.0 0.00 0.39 0.33 61 1015.4
20260830184545 87 180 0.0 0.0 0.00 0.39 0.33 61 1015.4
20260830183041 86 179 0.0 0.0 0.00 0.39 0.33 59 1015.6